Colby, KS

1:29 AM CDT on April 24, 2017 (GMT -0500)
Shaltz

Weather History for KCBK - September, 2013

Change the Weather History Date:

Thursday, September 26, 2013

  Actual Average (KGLD) Record (KGLD)
Temperature  
Mean Temperature 70 °F -  
Max Temperature 86 °F 77 °F 90 °F (1974)
Min Temperature 53 °F 46 °F 22 °F (1942)
Cooling Degree Days 4    
Growing Degree Days 20 (Base 50)    
Moisture  
Dew Point 51 °F    
Average Humidity 53    
Maximum Humidity 88    
Minimum Humidity 29    
Precipitation  
Precipitation 0.00 in - - ()
Sea Level Pressure  
Sea Level Pressure 29.66 in    
Wind  
Wind Speed 11 mph (South)    
Max Wind Speed 21 mph    
Max Gust Speed 32 mph    
Visibility 10 miles    
Events      
Averages and records for this station are not official NWS values.
T = Trace of Precipitation, MM = Missing Value Source: NWS Daily Summary

Daily Weather History Graph

Daily Weather History Graph

Search for Another Location

Airport or City:

Trip Planner

Search our weather history database for the weather conditions in past years. The results will help you decide how hot, cold, wet, or windy it might be!

Date:

Astronomy

Sep. 26, 2013 Rise Set
Actual Time 7:35 AM CDT 7:34 PM CDT
Civil Twilight 7:09 AM CDT 8:01 PM CDT
Nautical Twilight 6:37 AM CDT 8:32 PM CDT
Astronomical Twilight 6:06 AM CDT 9:03 PM CDT
Moon No Moon Rise 2:27 PM CDT (9/26)
Length of Visible Light 12h 51m
Length of Day
11h 58m
Waning Gibbous, 54% of the Moon is Illuminated
Sep 26
Waning Gibbous
Sep 26
Last Quarter
Oct 4
New
Oct 11
First Quarter
Oct 18
Full

Hourly Weather History & Observations

Time (CDT) Temp. Heat Index Dew Point Humidity Pressure Visibility Wind Dir Wind Speed Gust Speed Precip Events Conditions
12:15 AM 71.6 °F - 50.0 °F 46% 29.60 in 10.0 mi SSE 19.6 mph 28.8 mph N/A   Clear
12:35 AM 69.8 °F - 50.0 °F 49% 29.60 in 10.0 mi SSE 20.7 mph 31.1 mph N/A   Clear
12:55 AM 69.8 °F - 50.0 °F 49% 29.60 in 10.0 mi South 20.7 mph 32.2 mph N/A   Clear
1:15 AM 69.8 °F - 50.0 °F 49% 29.60 in 10.0 mi SSE 18.4 mph 25.3 mph N/A   Clear
1:35 AM 68.0 °F - 50.0 °F 52% 29.60 in 10.0 mi South 17.3 mph 25.3 mph N/A   Clear
1:55 AM 68.0 °F - 50.0 °F 52% 29.60 in 10.0 mi South 17.3 mph 24.2 mph N/A   Clear
2:15 AM 66.2 °F - 50.0 °F 56% 29.60 in 10.0 mi SSE 13.8 mph - N/A   Clear
2:35 AM 64.4 °F - 50.0 °F 59% 29.61 in 10.0 mi SSE 15.0 mph - N/A   Clear
2:55 AM 64.4 °F - 50.0 °F 59% 29.61 in 10.0 mi SSE 15.0 mph 20.7 mph N/A   Clear
3:15 AM 64.4 °F - 50.0 °F 59% 29.61 in 10.0 mi SSE 11.5 mph - N/A   Clear
3:35 AM 62.6 °F - 50.0 °F 63% 29.61 in 10.0 mi South 11.5 mph - N/A   Clear
3:55 AM 62.6 °F - 50.0 °F 63% 29.61 in 10.0 mi SSE 11.5 mph - N/A   Clear
4:15 AM 62.6 °F - 50.0 °F 63% 29.61 in 10.0 mi SSE 11.5 mph - N/A   Clear
4:35 AM 62.6 °F - 50.0 °F 63% 29.61 in 10.0 mi SSE 11.5 mph - N/A   Clear
4:55 AM 60.8 °F - 50.0 °F 68% 29.61 in 10.0 mi South 12.7 mph 17.3 mph N/A   Clear
5:15 AM 60.8 °F - 50.0 °F 68% 29.61 in 10.0 mi South 13.8 mph 18.4 mph N/A   Clear
5:35 AM 60.8 °F - 50.0 °F 68% 29.62 in 10.0 mi South 12.7 mph - N/A   Clear
5:55 AM 60.8 °F - 50.0 °F 68% 29.63 in 10.0 mi SSE 8.1 mph - N/A   Clear
6:15 AM 59.0 °F - 50.0 °F 72% 29.64 in 10.0 mi South 11.5 mph - N/A   Clear
6:35 AM 57.2 °F - 50.0 °F 77% 29.66 in 10.0 mi West 9.2 mph - N/A   Clear
6:55 AM 53.6 °F - 48.2 °F 82% 29.67 in 10.0 mi WNW 9.2 mph - N/A   Clear
7:15 AM 53.6 °F - 48.2 °F 82% 29.66 in 10.0 mi SW 8.1 mph - N/A   Clear
7:35 AM 53.6 °F - 48.2 °F 82% 29.68 in 10.0 mi WSW 3.5 mph - N/A   Clear
7:55 AM 53.6 °F - 48.2 °F 82% 29.68 in 10.0 mi SSE 8.1 mph - N/A   Clear
8:15 AM 53.6 °F - 50.0 °F 88% 29.68 in 10.0 mi Calm Calm - N/A   Clear
8:35 AM 59.0 °F - 50.0 °F 72% 29.69 in 10.0 mi SSW 3.5 mph - N/A   Clear
8:55 AM 59.0 °F - 51.8 °F 77% 29.69 in 10.0 mi West 5.8 mph - N/A   Clear
9:15 AM 60.8 °F - 50.0 °F 68% 29.69 in 10.0 mi WSW 4.6 mph - N/A   Clear
9:35 AM 62.6 °F - 50.0 °F 63% 29.70 in 10.0 mi NW 3.5 mph - N/A   Clear
9:55 AM 62.6 °F - 51.8 °F 68% 29.71 in 10.0 mi NW 5.8 mph - N/A   Clear
10:15 AM 64.4 °F - 51.8 °F 64% 29.71 in 10.0 mi NW 4.6 mph - N/A   Clear
10:35 AM 64.4 °F - 51.8 °F 64% 29.71 in 10.0 mi West 5.8 mph - N/A   Clear
10:55 AM 66.2 °F - 51.8 °F 60% 29.71 in 10.0 mi West 5.8 mph - N/A   Clear
11:15 AM 68.0 °F - 51.8 °F 56% 29.71 in 10.0 mi WNW 5.8 mph - N/A   Clear
11:35 AM 69.8 °F - 53.6 °F 56% 29.71 in 10.0 mi WNW 4.6 mph - N/A   Clear
11:55 AM 69.8 °F - 53.6 °F 56% 29.71 in 10.0 mi West 3.5 mph - N/A   Clear
12:15 PM 71.6 °F - 53.6 °F 53% 29.71 in 10.0 mi Calm Calm - N/A   Clear
12:35 PM 73.4 °F - 53.6 °F 50% 29.71 in 10.0 mi Calm Calm - N/A   Clear
12:55 PM 75.2 °F - 53.6 °F 47% 29.71 in 10.0 mi Calm Calm - N/A   Clear
1:15 PM 75.2 °F - 51.8 °F 44% 29.71 in 10.0 mi Calm Calm - N/A   Clear
1:35 PM 77.0 °F - 51.8 °F 41% 29.71 in 10.0 mi SE 3.5 mph - N/A   Clear
1:55 PM 77.0 °F - 53.6 °F 44% 29.71 in 10.0 mi SSE 5.8 mph - N/A   Clear
2:15 PM 78.8 °F - 53.6 °F 42% 29.70 in 10.0 mi Calm Calm - N/A   Clear
2:35 PM 78.8 °F - 53.6 °F 42% 29.70 in 10.0 mi ESE 3.5 mph - N/A   Clear
2:55 PM 80.6 °F 80.3 °F 53.6 °F 39% 29.69 in 10.0 mi South 6.9 mph - N/A   Clear
3:15 PM 82.4 °F 81.4 °F 53.6 °F 37% 29.69 in 10.0 mi SSW 5.8 mph - N/A   Clear
3:35 PM 82.4 °F 81.4 °F 53.6 °F 37% 29.69 in 10.0 mi SSW 8.1 mph - N/A   Clear
3:55 PM 82.4 °F - 51.8 °F 35% 29.68 in 10.0 mi South 5.8 mph - N/A   Clear
4:15 PM 84.2 °F - 50.0 °F 30% 29.68 in 10.0 mi SE 8.1 mph - N/A   Clear
4:35 PM 84.2 °F - 50.0 °F 30% 29.67 in 10.0 mi SSW 4.6 mph - N/A   Clear
4:55 PM 86.0 °F - 50.0 °F 29% 29.67 in 10.0 mi SW 5.8 mph - N/A   Clear
5:15 PM 86.0 °F - 50.0 °F 29% 29.66 in 10.0 mi South 6.9 mph - N/A   Clear
5:35 PM 86.0 °F - 50.0 °F 29% 29.65 in 10.0 mi Calm Calm - N/A   Clear
5:55 PM 86.0 °F - 50.0 °F 29% 29.65 in 10.0 mi Calm Calm - N/A   Clear
6:15 PM 86.0 °F 84.5 °F 55.4 °F 35% 29.65 in 10.0 mi Calm Calm - N/A   Clear
6:35 PM 86.0 °F - 51.8 °F 31% 29.64 in 10.0 mi Calm Calm - N/A   Clear
6:55 PM 86.0 °F - 50.0 °F 29% 29.64 in 10.0 mi Calm Calm - N/A   Clear
7:15 PM 80.6 °F - 51.8 °F 37% 29.65 in 10.0 mi Calm Calm - N/A   Clear
7:35 PM 77.0 °F - 51.8 °F 41% 29.64 in 10.0 mi NNE 4.6 mph - N/A   Clear
7:55 PM 77.0 °F - 50.0 °F 39% 29.65 in 10.0 mi NE 4.6 mph - N/A   Clear
8:15 PM 71.6 °F - 50.0 °F 46% 29.65 in 10.0 mi ENE 5.8 mph - N/A   Clear
8:35 PM 69.8 °F - 50.0 °F 49% 29.66 in 7.0 mi Calm Calm - N/A   Clear
8:55 PM 69.8 °F - 50.0 °F 49% 29.67 in 10.0 mi SE 4.6 mph - N/A   Clear
9:15 PM 71.6 °F - 50.0 °F 46% 29.67 in 10.0 mi Calm Calm - N/A   Clear
9:35 PM 68.0 °F - 50.0 °F 52% 29.67 in 10.0 mi SE 8.1 mph - N/A   Clear
9:55 PM 68.0 °F - 48.2 °F 49% 29.68 in 10.0 mi SE 11.5 mph - N/A   Clear
10:15 PM 68.0 °F - 46.4 °F 46% 29.68 in 10.0 mi SSE 11.5 mph - N/A   Clear
10:35 PM 69.8 °F - 51.8 °F 53% 29.68 in 10.0 mi SSE 15.0 mph - N/A   Clear
10:55 PM 73.4 °F - 59.0 °F 61% 29.68 in 10.0 mi SSE 16.1 mph 21.9 mph N/A   Clear
11:15 PM 75.2 °F - 59.0 °F 57% 29.68 in 10.0 mi SSE 17.3 mph 26.5 mph N/A   Clear
11:35 PM 77.0 °F - 59.0 °F 54% 29.69 in 10.0 mi SSE 20.7 mph 26.5 mph N/A   Clear
11:55 PM 75.2 °F - 59.0 °F 57% 29.69 in 10.0 mi South 20.7 mph 26.5 mph N/A   Clear